| time (UTC) | temp C | wind direction | speed KPH | gust KPH | rain 1hr cm | rain 24hr cm | rain mn cm | humidity % | barometer mb |
| 20260508013009 | 18 | 182 | 0.0 | 0.0 | 0.00 | 0.00 | 0.00 | 45 | 1007.8 |
| 20260508011509 | 19 | 176 | 0.0 | 0.0 | 0.00 | 0.00 | 0.00 | 44 | 1007.7 |
| 20260508010010 | 20 | 182 | 0.0 | 0.0 | 0.00 | 0.00 | 0.00 | 43 | 1007.6 |
| 20260508004507 | 20 | 200 | 0.0 | 0.0 | 0.00 | 0.00 | 0.00 | 42 | 1007.6 |
| 20260508003007 | 21 | 169 | 0.0 | 0.0 | 0.00 | 0.00 | 0.00 | 40 | 1007.5 |
| 20260508001507 | 21 | 170 | 0.0 | 0.0 | 0.00 | 0.00 | 0.00 | 39 | 1007.5 |
| 20260508000006 | 22 | 184 | 0.0 | 0.0 | 0.00 | 0.00 | 0.00 | 36 | 1007.6 |
| 20260507234506 | 22 | 199 | 0.0 | 0.0 | 0.00 | 0.00 | 0.00 | 35 | 1007.7 |
| 20260507233003 | 22 | 211 | 0.0 | 0.0 | 0.00 | 0.00 | 0.00 | 34 | 1007.9 |
| 20260507231501 | 22 | 191 | 0.0 | 0.0 | 0.00 | 0.00 | 0.00 | 36 | 1008.1 |
| 20260507230100 | 22 | 209 | 0.0 | 0.0 | 0.00 | 0.00 | 0.00 | 35 | 1008.2 |
| 20260507224600 | 23 | 190 | 0.0 | 0.0 | 0.00 | 0.00 | 0.00 | 35 | 1008.3 |
| 20260507223113 | 23 | 200 | 0.0 | 0.0 | 0.00 | 0.00 | 0.00 | 33 | 1008.5 |
| 20260507221556 | 23 | 225 | 0.0 | 0.0 | 0.00 | 0.00 | 0.00 | 35 | 1008.6 |
| 20260507220053 | 23 | 211 | 0.0 | 0.0 | 0.00 | 0.00 | 0.00 | 36 | 1008.9 |
| 20260507214551 | 22 | 197 | 0.0 | 0.0 | 0.00 | 0.00 | 0.00 | 36 | 1008.9 |
| 20260507213050 | 22 | 201 | 0.0 | 0.0 | 0.00 | 0.00 | 0.00 | 36 | 1009.1 |
| 20260507211557 | 22 | 198 | 0.0 | 0.0 | 0.00 | 0.00 | 0.00 | 37 | 1009.2 |
| 20260507210104 | 22 | 192 | 0.0 | 0.0 | 0.00 | 0.00 | 0.00 | 37 | 1009.3 |
| 20260507204547 | 22 | 211 | 0.0 | 0.0 | 0.00 | 0.00 | 0.00 | 40 | 1009.7 |
| 20260507203043 | 22 | 201 | 0.0 | 0.0 | 0.00 | 0.00 | 0.00 | 39 | 1009.8 |
| 20260507201540 | 22 | 202 | 0.0 | 0.0 | 0.00 | 0.00 | 0.00 | 39 | 1010.2 |
| 20260507200049 | 21 | 213 | 0.0 | 0.0 | 0.00 | 0.00 | 0.00 | 39 | 1010.3 |
| 20260507194548 | 21 | 211 | 0.0 | 0.0 | 0.00 | 0.00 | 0.00 | 39 | 1010.5 |
| 20260507193034 | 21 | 202 | 0.0 | 0.0 | 0.00 | 0.00 | 0.00 | 40 | 1010.7 |
| 20260507191532 | 21 | 198 | 0.0 | 0.0 | 0.00 | 0.00 | 0.00 | 42 | 1010.9 |
| 20260507190040 | 20 | 188 | 0.0 | 0.0 | 0.00 | 0.00 | 0.00 | 43 | 1011.1 |
| 20260507184533 | 20 | 188 | 0.0 | 0.0 | 0.00 | 0.00 | 0.00 | 42 | 1011.4 |
| 20260507183024 | 20 | 228 | 0.0 | 0.0 | 0.00 | 0.00 | 0.00 | 45 | 1011.6 |
| 20260507181523 | 20 | 217 | 0.0 | 0.0 | 0.00 | 0.00 | 0.00 | 43 | 1011.9 |
| 20260507180022 | 19 | 167 | 0.0 | 0.0 | 0.00 | 0.00 | 0.00 | 44 | 1012.2 |
| 20260507174518 | 19 | 227 | 0.0 | 0.0 | 0.00 | 0.00 | 0.00 | 43 | 1012.4 |
| 20260507173034 | 18 | 232 | 0.0 | 0.0 | 0.00 | 0.00 | 0.00 | 46 | 1012.7 |
| 20260507171512 | 18 | 187 | 0.0 | 0.0 | 0.00 | 0.00 | 0.00 | 47 | 1013.0 |
| 20260507170016 | 18 | 213 | 0.0 | 0.0 | 0.00 | 0.00 | 0.00 | 47 | 1013.1 |
| 20260507164519 | 18 | 220 | 0.0 | 0.0 | 0.00 | 0.00 | 0.00 | 50 | 1013.4 |
| 20260507163004 | 17 | 226 | 0.0 | 0.0 | 0.00 | 0.00 | 0.00 | 50 | 1013.8 |
| 20260507161503 | 17 | 201 | 0.0 | 0.0 | 0.00 | 0.00 | 0.00 | 51 | 1014.0 |
| 20260507160001 | 17 | 227 | 0.0 | 0.0 | 0.00 | 0.00 | 0.00 | 51 | 1014.0 |
| 20260507154601 | 16 | 243 | 0.0 | 0.0 | 0.00 | 0.00 | 0.00 | 53 | 1014.1 |
| 20260507153058 | 16 | 259 | 0.0 | 0.0 | 0.00 | 0.00 | 0.00 | 54 | 1014.2 |
| 20260507151554 | 16 | 254 | 0.0 | 0.0 | 0.00 | 0.00 | 0.00 | 55 | 1014.6 |
| 20260507150053 | 15 | 247 | 0.0 | 0.0 | 0.00 | 0.00 | 0.00 | 57 | 1014.6 |
| 20260507144550 | 15 | 205 | 0.0 | 0.0 | 0.00 | 0.00 | 0.00 | 56 | 1014.6 |
| 20260507143048 | 15 | 196 | 0.0 | 0.0 | 0.00 | 0.00 | 0.00 | 58 | 1014.6 |
| 20260507141544 | 14 | 227 | 0.0 | 0.0 | 0.00 | 0.00 | 0.00 | 60 | 1014.7 |
| 20260507140044 | 13 | 225 | 0.0 | 0.0 | 0.00 | 0.00 | 0.00 | 64 | 1014.7 |
| 20260507134538 | 13 | 219 | 0.0 | 0.0 | 0.00 | 0.00 | 0.00 | 66 | 1014.6 |
| 20260507133034 | 12 | 229 | 0.0 | 0.0 | 0.00 | 0.00 | 0.00 | 69 | 1014.6 |
| 20260507131530 | 10 | 219 | 0.0 | 0.0 | 0.00 | 0.00 | 0.00 | 75 | 1014.9 |
| 20260507130033 | 10 | 218 | 0.0 | 0.0 | 0.00 | 0.00 | 0.00 | 78 | 1015.1 |
| 20260507124530 | 8 | 187 | 0.0 | 0.0 | 0.00 | 0.00 | 0.00 | 82 | 1015.1 |
| 20260507123022 | 7 | 215 | 0.0 | 0.0 | 0.00 | 0.00 | 0.00 | 83 | 1015.2 |
| 20260507121519 | 7 | 209 | 0.0 | 0.0 | 0.00 | 0.00 | 0.00 | 83 | 1015.2 |
| 20260507120019 | 6 | 225 | 0.0 | 0.0 | 0.00 | 0.00 | 0.00 | 83 | 1015.1 |
| 20260507114518 | 6 | 0.0 | 0.0 | 0.00 | 0.00 | 0.00 | 83 | 1015.0 | |
| 20260507113035 | 6 | 0.0 | 0.0 | 0.00 | 0.00 | 0.00 | 83 | 1015.0 | |
| 20260507111518 | 6 | 0.0 | 0.0 | 0.00 | 0.00 | 0.00 | 83 | 1015.0 | |
| 20260507110017 | 6 | 0.0 | 0.0 | 0.00 | 0.00 | 0.00 | 82 | 1014.9 | |
| 20260507104515 | 6 | 0.0 | 0.0 | 0.00 | 0.00 | 0.00 | 82 | 1014.9 | |
| 20260507103018 | 6 | 0.0 | 0.0 | 0.00 | 0.00 | 0.00 | 82 | 1014.9 | |
| 20260507101517 | 6 | 0.0 | 0.0 | 0.00 | 0.00 | 0.00 | 81 | 1015.1 | |
| 20260507100012 | 6 | 0.0 | 0.0 | 0.00 | 0.00 | 0.00 | 80 | 1015.3 | |
| 20260507094508 | 6 | 0.0 | 0.0 | 0.00 | 0.00 | 0.00 | 79 | 1015.3 | |
| 20260507093007 | 6 | 0.0 | 0.0 | 0.00 | 0.00 | 0.00 | 78 | 1015.3 | |
| 20260507091506 | 7 | 0.0 | 0.0 | 0.00 | 0.00 | 0.00 | 77 | 1015.3 | |
| 20260507090004 | 7 | 0.0 | 0.0 | 0.00 | 0.00 | 0.00 | 77 | 1015.4 | |
| 20260507084506 | 7 | 0.0 | 0.0 | 0.00 | 0.00 | 0.00 | 77 | 1015.4 | |
| 20260507083002 | 6 | 0.0 | 0.0 | 0.00 | 0.00 | 0.00 | 77 | 1015.6 | |
| 20260507081503 | 7 | 0.0 | 0.0 | 0.00 | 0.00 | 0.00 | 76 | 1015.6 | |
| 20260507080100 | 7 | 0.0 | 0.0 | 0.00 | 0.00 | 0.00 | 76 | 1015.6 | |
| 20260507074603 | 7 | 212 | 0.0 | 0.0 | 0.00 | 0.00 | 0.00 | 76 | 1015.7 |
| 20260507073100 | 7 | 211 | 0.0 | 0.0 | 0.00 | 0.00 | 0.00 | 76 | 1015.8 |
| 20260507071555 | 7 | 211 | 0.0 | 0.0 | 0.00 | 0.00 | 0.00 | 75 | 1016.0 |
| 20260507070054 | 7 | 205 | 0.0 | 0.0 | 0.00 | 0.00 | 0.00 | 75 | 1016.0 |
| 20260507064554 | 7 | 205 | 0.0 | 0.0 | 0.00 | 0.00 | 0.00 | 74 | 1016.1 |
| 20260507063050 | 7 | 204 | 0.0 | 0.0 | 0.00 | 0.00 | 0.00 | 73 | 1016.3 |
| 20260507061546 | 7 | 202 | 0.0 | 0.0 | 0.00 | 0.00 | 0.00 | 71 | 1016.5 |
| 20260507060043 | 8 | 199 | 0.0 | 0.0 | 0.00 | 0.00 | 0.00 | 70 | 1016.5 |
| 20260507054543 | 8 | 215 | 0.0 | 0.0 | 0.00 | 0.00 | 0.00 | 70 | 1016.7 |
| 20260507053042 | 8 | 249 | 0.0 | 0.0 | 0.00 | 0.00 | 0.00 | 70 | 1016.5 |
| 20260507051541 | 8 | 284 | 0.0 | 0.0 | 0.00 | 0.00 | 0.00 | 69 | 1016.5 |
| 20260507050042 | 8 | 284 | 0.0 | 0.0 | 0.00 | 0.00 | 0.00 | 70 | 1016.5 |
| 20260507044539 | 8 | 284 | 0.0 | 0.0 | 0.00 | 0.00 | 0.00 | 68 | 1016.5 |
| 20260507043053 | 8 | 284 | 0.0 | 0.0 | 0.00 | 0.00 | 0.00 | 68 | 1016.5 |
| 20260507041537 | 8 | 284 | 0.0 | 0.0 | 0.00 | 0.00 | 0.00 | 66 | 1016.5 |
| 20260507040037 | 8 | 284 | 0.0 | 0.0 | 0.00 | 0.00 | 0.00 | 64 | 1016.7 |
| 20260507034538 | 8 | 284 | 0.0 | 0.0 | 0.00 | 0.00 | 0.00 | 63 | 1016.7 |
| 20260507033038 | 8 | 284 | 0.0 | 0.0 | 0.00 | 0.00 | 0.00 | 61 | 1016.8 |
| 20260507031539 | 8 | 284 | 0.0 | 0.0 | 0.00 | 0.00 | 0.00 | 58 | 1016.8 |
| 20260507030035 | 9 | 303 | 0.0 | 0.0 | 0.00 | 0.00 | 0.00 | 57 | 1016.6 |
| 20260507024534 | 9 | 303 | 0.0 | 0.0 | 0.00 | 0.00 | 0.00 | 58 | 1016.5 |
| 20260507023035 | 9 | 303 | 0.0 | 0.0 | 0.00 | 0.00 | 0.00 | 57 | 1016.5 |
| 20260507021537 | 10 | 331 | 0.0 | 0.0 | 0.00 | 0.00 | 0.00 | 53 | 1016.3 |
| 20260507020046 | 10 | 331 | 0.0 | 0.0 | 0.00 | 0.00 | 0.00 | 49 | 1016.2 |
| 20260507014535 | 11 | 331 | 0.0 | 0.0 | 0.00 | 0.00 | 0.00 | 47 | 1016.1 |